{"data":{"norad_id":60255,"intl_designator":"2024-131A","name":"STARLINK-32138","alt_names":[],"object_type":"PAYLOAD","status":"ACTIVE","operator":null,"country":"US","launch_date":"2024-07-27","launch_site_code":"AFETR","launch_vehicle":null,"mission":null,"orbit_class":"UNKNOWN","rcs_meters":null,"size_class":null,"mass_kg":null,"dimensions":null,"purposes":["comms"],"wikipedia_slug":null,"has_3d_model":false,"image_url":null,"decayed_at":null,"tle_current":{"epoch":"2026-09-21T14:27:35.376192Z","epoch_age_seconds":86308,"freshness":"FRESH","line1":"1 60255U 24131A   26264.60249278 -.00000768  00000+0 -12974-4 0  9996","line2":"2 60255  53.1567 221.0274 0001612  93.8820 266.2366 15.31695380122035","mean_motion":15.3169538,"eccentricity":0.0001612,"inclination_deg":53.1567,"raan_deg":221.0274,"arg_perigee_deg":93.882,"mean_anomaly_deg":266.2366,"bstar":-1.2974e-5,"rev_number":12203,"period_min":94.013471529829,"perigee_km":469.64972604818,"apogee_km":471.85780843154,"semimajor_km":6848.8907672399,"source":"CELESTRAK","updated_at":"2026-09-22T09:00:49.185958Z"}}}